Tracking 18987 objects as of 25-Feb-2018
HD Live streaming from Space Station
objects crossing your sky now

FENGYUN 1C DEB

Track FENGYUN 1C DEB now!
10-day predictions


NORAD ID: 29786
Int'l Code: 1999-025CC
Perigee: 817.1 km
Apogee: 932.2 km
Inclination: 99.0 °
Period: 102.3 minutes
Semi major axis: 7245 km
RCS: 0.052 m2 (small)
Launch date: May 10, 1999
Source: People's Republic of China (PRC)
Launch site: Taiyaun Space Center, China (TSC)

Note: This is SATELLITE DEBRIS
aabbcc
Your satellite tracking list
Your tracking list is empty




NASA's NSSDC Master Catalog

Two Line Element Set (TLE):
1 29786U 99025CC  18055.66094743 +.00000168 +00000-0 +12266-3 0  9990
2 29786 099.0291 082.5279 0079377 029.0568 086.7773 14.07625830570804
Source of the keplerian elements: AFSPC